Regional Weather Roundup
Issued by NWS Albany, NY

Home | Current Version | Previous Version | Text Only | Print | Product List | Glossary On
Versions: 1 2 3 4 5 6 7 8 9 10 11 12 13 14 15 16 17 18 19 20 21 22 23 24 25 26 27 28 29 30 31 32 33 34 35 36 37 38 39 40 41 42 43 44 45 46 47 48 49 50
203
ASUS41 KALY 170710
RWRALY

NEW YORK STATE HOURLY WEATHER ROUNDUP
NATIONAL WEATHER SERVICE ALBANY NY
200 AM EST SUN DEC 17 2017

NOTE: "FAIR" INDICATES FEW OR NO CLOUDS BELOW 12,000 FEET WITH NO
SIGNIFICANT WEATHER AND/OR NO OBSTRUCTIONS TO VISIBILITY.

NYZ032-033-038>043-046>054-057>066-NYZ062>081-082-084-170800-
EAST


CITY           SKY/WX    TMP DP  RH WIND       PRES   REMARKS
ALBANY         PTCLDY    14   8  77 CALM      30.24R
GLENS FALLS    CLOUDY    -1  -4  87 CALM      30.23R
POUGHKEEPSIE   MOCLDY    19  15  84 CALM      30.22R
NEWBURGH       CLOUDY    27  21  80 NW6       30.21R WCI  20
MONTGOMERY     CLOUDY    28  16  60 CALM      30.20R
WHITE PLAINS   CLOUDY    30  20  66 N3        30.20R
ISLIP          CLOUDY    31  21  66 N7        30.23R WCI  24
NEW YORK CITY  CLOUDY    35  20  54 NW7       30.23R WCI  29
CENTRAL PARK   CLOUDY    33  20  58 VRB3      30.25R
$$

NYZ005>009-017-018-044>046-055-056-170800-
CENTRAL


CITY           SKY/WX    TMP DP  RH WIND       PRES   REMARKS
FULTON         CLOUDY     8   4  83 CALM      30.22R
SYRACUSE       PTCLDY     5   2  87 CALM      30.22R
ROME           CLOUDY    -1  -4  87 CALM      30.25R
ELMIRA         CLOUDY    24  19  81 CALM      30.19R
BINGHAMTON     CLOUDY    20  14  77 NW3       30.14R
MONTICELLO     CLOUDY    22  17  81 W3        30.16R
$$

NYZ026>034-041>043-087-170800-
NORTH


CITY           SKY/WX    TMP DP  RH WIND       PRES   REMARKS
WATERTOWN      PTCLDY    -4  -8  83 E5        30.27R WCI -15
FORT DRUM      NOT AVBL
OGDENSBURG     FAIR      -1  -5  85 CALM      30.27R
MASSENA        CLOUDY    -6  -9  86 CALM      30.29R
SARANAC LAKE   CLOUDY   -14 -19  79 CALM      30.10S
PLATTSBURGH    CLOUDY     4  -1  80 NW6       30.24S WCI  -7
$$

NYZ001>004-010>016-019>021-085-170800-
WEST


CITY           SKY/WX    TMP DP  RH WIND       PRES   REMARKS
NIAGARA FALLS  CLOUDY    16   9  74 CALM      30.23R
BUFFALO        CLOUDY    20  13  74 NE6       30.22R WCI  12
DUNKIRK        CLOUDY    22  17  81 NE8       30.21R WCI  12
JAMESTOWN      CLOUDY    24  23  96 CALM      30.13R
WELLSVILLE     CLOUDY    23  19  85 CALM      30.12R
ROCHESTER      CLOUDY    19  12  74 W3        30.23R
PENN YAN       CLOUDY    22  10  60 CALM      30.19S
$$

             KEY
       WCI = WIND CHILL INDEX
       VSB = VISIBILITY
       HX  = HEAT INDEX
$$




USA.gov is the U.S. government's official web portal to all federal, state and local government web resources and services.